Location: Frizzleburg
(41.0764°N, 80.4548°W)
Time: 20:20:42
(UTC+00:00)

Cosmos 1459 Rocket - Pass Details

Date: 17 November 2019
Orbit: 938 x 999 km, 83.0° (Epoch: 05 December)

Event Time Altitude Azimuth Distance (km) Brightness Sun altitude
Rises 11:09:11 0° 210° (SSW) 3,624 6.8 -11.9°
Reaches altitude 10° 11:11:51 10° 219° (SW) 2,691 6.1 -11.4°
Maximum altitude 11:17:29 36° 285° (WNW) 1,484 4.5 -10.4°
Drops below altitude 10° 11:23:14 10° 351° (N) 2,746 6.1 -9.3°
Sets 11:26:01 0° 0° (N) 3,706 6.9 -8.8°
